Location: Dompnac
(44.5644°N, 4.1026°E)
Time: 11:32:41
(UTC+00:00)

YAOGAN 1 - Pass Details

Date: 19 September 2020
Orbit: 618 x 620 km, 97.9° (Epoch: 29 October)

Event Time Altitude Azimuth Distance (km) Brightness Sun altitude
Rises 18:38:09 0° 176° (S) 2,883 5.8 -10.0°
Reaches altitude 10° 18:40:22 10° 180° (S) 1,982 5.0 -10.4°
Maximum altitude 18:44:36 57° 259° (W) 737 3.3 -11.2°
Drops below altitude 10° 18:48:53 10° 339° (NNW) 1,998 5.7 -11.9°
Sets 18:51:08 0° 343° (NNW) 2,909 6.5 -12.3°
